Regional Weather Roundup
Issued by NWS Bismarck, ND

Home | Current Version | Previous Version | Text Only | Print | Product List | Glossary On
Versions: 1 2 3 4 5 6 7 8 9 10 11 12 13 14 15 16 17 18 19 20 21 22 23 24 25 26 27 28 29 30 31 32 33 34 35 36 37 38 39 40 41 42 43 44 45 46 47 48 49 50
000
ASUS43 KBIS 260120
RWRBIS

NWR BROADCAST TEXT
NATIONAL WEATHER SERVICE BISMARCK ND
700 PM CST THU DEC 25 2014

NOTE: "FAIR" INDICATES FEW OR NO CLOUDS BELOW 12,000 FEET WITH NO
SIGNIFICANT WEATHER AND/OR OBSTRUCTIONS TO VISIBILITY.


CITY           SKY/WX    TMP DP  RH WIND       PRES   REMARKS
WILLISTON      CLOUDY    22  15  75 NW9       30.01R WCI  12
MINOT          CLOUDY    24  17  74 NW10      29.95R WCI  14
MINOT AFB      CLOUDY    23  22  95 N9        29.95R WCI  13
BISMARCK       CLOUDY    27  21  78 NW15      29.94R WCI  15
DICKINSON      CLOUDY    24  17  74 N13       29.93R WCI  12
GARRISON         N/A     24  19  81 N14       29.94R WCI  12
HETTINGER ARPT CLOUDY    23  17  78 NW16      29.94R WCI  10
JAMESTOWN      CLOUDY    26  22  84 N9        29.90R WCI  17
BEACH          CLOUDY    19  18  93 N13       29.98R WCI   7
CARRINGTON     CLOUDY    25  25 100 MISG      29.93R
CROSBY         FAIR      12  10  92 NW10      30.02R WCI  -1
HARVEY         CLOUDY    25  25 100 N7        29.92R WCI  17
HAZEN          CLOUDY    25  19  80 N6        29.97R WCI  18
LINTON         CLOUDY    27  25  93 NW8       29.92R WCI  18
MANDAN         CLOUDY    25  21  86 N15G21    29.94R WCI  12
OAKES            N/A     27  27 100 N9        29.90R WCI  17
RUGBY          CLOUDY    23  19  86 NW17      29.94R WCI   9
STANLEY        CLOUDY    19  19 100 NW14      29.96R WCI   6
TIOGA          CLOUDY    18  18 100 N15       30.00R WCI   3
WATFORD CITY   CLOUDY    23  18  80 N12       29.97S WCI  12
$$

CITY           SKY/WX    TMP DP  RH WIND       PRES   REMARKS
GRAND FORKS    CLOUDY    27  21  80 N12       29.93R WCI  16
GRAND FORKS AF CLOUDY    26  26  99 N10       29.93R WCI  17
DEVILS LAKE    CLOUDY    25  21  86 N9        29.91S WCI  15
FARGO          CLOUDY    28  22  78 N16       29.90R WCI  16
CANDO          CLOUDY    25  21  86 NW13      29.93R WCI  13
CAVALIER       CLOUDY    25  23  93 N5        29.94R WCI  19
GWINNER        CLOUDY    30  28  93 N12       29.90R
LANGDON        CLOUDY    23  19  86 N6        29.91R WCI  16
ROLLA          CLOUDY    19  19 100 N13       29.92R WCI   7
WALHALLA         N/A     25  25 100 NW7       29.95R WCI  17
$$

CITY           SKY/WX    TMP DP  RH WIND       PRES   REMARKS
ABERDEEN       CLOUDY    28  22  78 N13       29.90R WCI  17
MOBRIDGE       CLOUDY    27  22  81 N9        29.89R WCI  18
BUFFALO          N/A     22  18  85 N12       29.87R WCI  10
RAPID CITY     FLURRIES  24  20  84 N17       29.89R WCI  11
GLASGOW        CLOUDY    21  14  74 NE7       30.02R WCI  12
SIDNEY         CLOUDY    21  16  79 NW10      30.04R WCI  10
WOLF POINT     CLOUDY    20  13  74 N8        30.05R WCI  10
GLENDIVE       CLOUDY    21  16  79 N8        30.01R WCI  12
MILES CITY     CLOUDY    24  18  77 N10       30.00R WCI  14
BAKER          CLOUDY    21  16  81 NW14      29.97R WCI   8
$$

CITY           SKY/WX    TMP DP  RH WIND       PRES   REMARKS
BILLINGS       FLURRIES  24  19  81 E6        29.98R WCI  17
GREAT FALLS    CLEAR     17  12  80 S9        29.93R WCI   6
REGINA         MOCLDY     3   1  92 NW12      30.04R WCI -13
ESTEVAN        PTCLDY     9   5  85 NW12      30.01R WCI  -6
$$



USA.gov is the U.S. government's official web portal to all federal, state and local government web resources and services.